Weather History for Houston, TX

Change the Weather History Date:

Friday, November 30, 2012

  Actual Average (KSGR) Record (KSGR)
Temperature  
Mean Temperature 70 °F -  
Max Temperature 80 °F 66 °F 82 °F (1949)
Min Temperature 59 °F 43 °F 24 °F (1976)
Cooling Degree Days 4    
Growing Degree Days 20 (Base 50)    
Moisture  
Dew Point 64 °F    
Average Humidity 89    
Maximum Humidity 100    
Minimum Humidity 51    
Precipitation  
Precipitation 0.00 in - - ()
Sea Level Pressure  
Sea Level Pressure 30.14 in    
Wind  
Wind Speed 6 mph (ESE)    
Max Wind Speed 13 mph    
Max Gust Speed 20 mph    
Visibility 7 miles    
Events      
Averages and records for this station are not official NWS values.
T = Trace of Precipitation, MM = Missing Value Source: NWS Daily Summary

Daily Weather History Graph

Daily Weather History Graph

Search for Another Location

Airport:

Trip Planner

Search our weather history database for the weather conditions in past years. The results will help you decide how hot, cold, wet, or windy it might be!

Date:

Astronomy

Nov. 30, 2012 Rise Set
Actual Time 7:01 AM CST 5:23 PM CST
Civil Twilight 6:35 AM CST 5:49 PM CST
Nautical Twilight 6:05 AM CST 6:19 PM CST
Astronomical Twilight 5:36 AM CST 6:48 PM CST
Moon 7:18 PM CST 8:34 AM CST
Length of Visible Light 11h 14m
Length of Day
10h 22m
Waning Gibbous, 96% of the Moon is Illuminated
Nov 30
Waning Gibbous
Dec 6
Last Quarter
Dec 13
New
Dec 19
First Quarter
Dec 28
Full

Hourly Weather History & Observations

Time (CST) Temp. Heat Index Dew Point Humidity Pressure Visibility Wind Dir Wind Speed Gust Speed Precip Events Conditions
12:15 AM 59.0 °F - 59.0 °F 100% 30.19 in 3.0 mi East 5.8 mph - N/A   Overcast
12:35 AM 59.0 °F - 59.0 °F 100% 30.19 in 3.0 mi East 6.9 mph - N/A   Mostly Cloudy
12:55 AM 59.0 °F - 59.0 °F 100% 30.19 in 3.0 mi East 6.9 mph - N/A   Overcast
1:15 AM 60.8 °F - 60.8 °F 100% 30.18 in 3.0 mi East 5.8 mph - N/A   Overcast
1:35 AM 60.8 °F - 60.8 °F 100% 30.18 in 4.0 mi East 4.6 mph - N/A   Overcast
1:55 AM 60.8 °F - 60.8 °F 100% 30.18 in 4.0 mi East 5.8 mph - N/A   Overcast
2:15 AM 60.8 °F - 60.8 °F 100% 30.18 in 4.0 mi East 6.9 mph - N/A   Overcast
2:35 AM 62.6 °F - 62.6 °F 100% 30.17 in 4.0 mi East 4.6 mph - N/A   Overcast
2:55 AM 62.6 °F - 62.6 °F 100% 30.17 in 5.0 mi East 6.9 mph - N/A   Overcast
3:15 AM 62.6 °F - 62.6 °F 100% 30.16 in 5.0 mi East 6.9 mph - N/A   Overcast
3:35 AM 62.6 °F - 62.6 °F 100% 30.16 in 5.0 mi East 8.1 mph - N/A   Overcast
3:55 AM 62.6 °F - 62.6 °F 100% 30.15 in 5.0 mi East 8.1 mph - N/A   Overcast
4:15 AM 62.6 °F - 62.6 °F 100% 30.15 in 5.0 mi East 5.8 mph - N/A   Overcast
4:35 AM 62.6 °F - 62.6 °F 100% 30.15 in 5.0 mi East 5.8 mph - N/A   Overcast
4:55 AM 62.6 °F - 62.6 °F 100% 30.15 in 5.0 mi East 4.6 mph - N/A   Overcast
5:15 AM 62.6 °F - 62.6 °F 100% 30.15 in 6.0 mi East 5.8 mph - N/A   Overcast
5:35 AM 62.6 °F - 62.6 °F 100% 30.16 in 6.0 mi East 3.5 mph - N/A   Overcast
5:55 AM 62.6 °F - 62.6 °F 100% 30.16 in 5.0 mi Calm Calm - N/A   Overcast
6:15 AM 62.6 °F - 62.6 °F 100% 30.16 in 5.0 mi Calm Calm - N/A   Overcast
6:35 AM 62.6 °F - 62.6 °F 100% 30.17 in 5.0 mi Calm Calm - N/A   Overcast
6:55 AM 62.6 °F - 62.6 °F 100% 30.17 in 5.0 mi Calm Calm - N/A   Overcast
7:15 AM 60.8 °F - 60.8 °F 100% 30.17 in 3.0 mi Calm Calm - N/A   Mostly Cloudy
7:35 AM 60.8 °F - 60.8 °F 100% 30.17 in 2.5 mi Calm Calm - N/A   Scattered Clouds
7:55 AM 62.6 °F - 62.6 °F 100% 30.18 in 3.0 mi ENE 4.6 mph - N/A   Mostly Cloudy
8:15 AM 64.4 °F - 64.4 °F 100% 30.18 in 4.0 mi East 5.8 mph - N/A   Overcast
8:35 AM 64.4 °F - 64.4 °F 100% 30.18 in 6.0 mi East 5.8 mph - N/A   Overcast
8:55 AM 68.0 °F - 66.2 °F 94% 30.19 in 8.0 mi ESE 8.1 mph - N/A   Overcast
9:15 AM 68.0 °F - 66.2 °F 94% 30.19 in 9.0 mi ESE 9.2 mph - N/A   Overcast
9:35 AM 71.6 °F - 66.2 °F 83% 30.19 in 10.0 mi SE 11.5 mph - N/A   Mostly Cloudy
9:55 AM 71.6 °F - 66.2 °F 83% 30.20 in 10.0 mi SE 10.4 mph - N/A   Mostly Cloudy
10:15 AM 73.4 °F - 66.2 °F 78% 30.19 in 9.0 mi SSE 6.9 mph - N/A   Mostly Cloudy
10:35 AM 73.4 °F - 66.2 °F 78% 30.19 in 10.0 mi SE 9.2 mph - N/A   Mostly Cloudy
10:55 AM 73.4 °F - 66.2 °F 78% 30.19 in 10.0 mi SE 9.2 mph - N/A   Mostly Cloudy
11:15 AM 77.0 °F - 66.2 °F 69% 30.19 in 10.0 mi SSE 5.8 mph - N/A   Scattered Clouds
11:35 AM 77.0 °F - 66.2 °F 69% 30.17 in 10.0 mi ESE 8.1 mph - N/A   Scattered Clouds
11:55 AM 77.0 °F - 66.2 °F 69% 30.16 in 10.0 mi SE 8.1 mph - N/A   Mostly Cloudy
12:15 PM 80.6 °F 82.3 °F 64.4 °F 58% 30.15 in 9.0 mi Calm Calm - N/A   Mostly Cloudy
12:35 PM 77.0 °F - 64.4 °F 65% 30.14 in 10.0 mi SE 5.8 mph - N/A   Mostly Cloudy
12:55 PM 77.0 °F - 64.4 °F 65% 30.12 in 10.0 mi SSE 4.6 mph - N/A   Overcast
1:15 PM 78.8 °F - 64.4 °F 61% 30.12 in 10.0 mi East 4.6 mph - N/A   Mostly Cloudy
1:35 PM 77.0 °F - 64.4 °F 65% 30.11 in 10.0 mi Calm Calm - N/A   Mostly Cloudy
1:55 PM 78.8 °F - 64.4 °F 61% 30.09 in 10.0 mi SSE 6.9 mph - N/A   Mostly Cloudy
2:15 PM 78.8 °F - 62.6 °F 57% 30.09 in 10.0 mi Calm Calm - N/A   Mostly Cloudy
2:35 PM 80.6 °F 81.8 °F 62.6 °F 54% 30.09 in 10.0 mi Calm Calm - N/A   Mostly Cloudy
2:55 PM 80.6 °F 81.5 °F 60.8 °F 51% 30.08 in 10.0 mi South 5.8 mph - N/A   Scattered Clouds
3:15 PM 80.6 °F 81.8 °F 62.6 °F 54% 30.08 in 10.0 mi East 11.5 mph 16.1 mph N/A   Mostly Cloudy
3:35 PM 77.0 °F - 66.2 °F 69% 30.08 in 10.0 mi East 10.4 mph - N/A   Overcast
3:55 PM 77.0 °F - 66.2 °F 69% 30.09 in 10.0 mi East 11.5 mph - N/A   Mostly Cloudy
4:15 PM 77.0 °F - 66.2 °F 69% 30.08 in 10.0 mi East 11.5 mph - N/A   Mostly Cloudy
4:35 PM 75.2 °F - 66.2 °F 73% 30.09 in 10.0 mi East 8.1 mph - N/A   Mostly Cloudy
4:55 PM 73.4 °F - 68.0 °F 83% 30.09 in 10.0 mi East 9.2 mph - N/A   Mostly Cloudy
5:15 PM 73.4 °F - 68.0 °F 83% 30.09 in 10.0 mi ESE 12.7 mph 19.6 mph N/A   Partly Cloudy
5:35 PM 71.6 °F - 68.0 °F 88% 30.09 in 10.0 mi East 11.5 mph - N/A   Clear
5:55 PM 69.8 °F - 68.0 °F 94% 30.09 in 10.0 mi ESE 10.4 mph - N/A   Scattered Clouds
6:15 PM 69.8 °F - 68.0 °F 94% 30.10 in 10.0 mi ESE 10.4 mph - N/A   Mostly Cloudy
6:35 PM 68.0 °F - 68.0 °F 100% 30.10 in 10.0 mi ESE 11.5 mph - N/A   Mostly Cloudy
6:55 PM 68.0 °F - 68.0 °F 100% 30.11 in 10.0 mi ESE 9.2 mph - N/A   Scattered Clouds
7:15 PM 68.0 °F - 68.0 °F 100% 30.11 in 10.0 mi ESE 10.4 mph - N/A   Clear
7:35 PM 68.0 °F - 68.0 °F 100% 30.11 in 10.0 mi ESE 8.1 mph - N/A   Clear
7:55 PM 66.2 °F - 66.2 °F 100% 30.12 in 10.0 mi ESE 8.1 mph - N/A   Clear
8:15 PM 66.2 °F - 66.2 °F 100% 30.12 in 9.0 mi ESE 6.9 mph - N/A   Clear
8:35 PM 66.2 °F - 66.2 °F 100% 30.12 in 9.0 mi ESE 6.9 mph - N/A   Clear
9:15 PM 64.4 °F - 64.4 °F 100% 30.13 in 7.0 mi ESE 5.8 mph - N/A   Partly Cloudy
9:35 PM 64.4 °F - 64.4 °F 100% 30.13 in 7.0 mi SE 5.8 mph - N/A   Mostly Cloudy
9:55 PM 64.4 °F - 64.4 °F 100% 30.13 in 7.0 mi ESE 5.8 mph - N/A   Mostly Cloudy
10:15 PM 64.4 °F - 64.4 °F 100% 30.14 in 6.0 mi ESE 5.8 mph - N/A   Overcast
10:35 PM 64.4 °F - 64.4 °F 100% 30.14 in 6.0 mi ESE 5.8 mph - N/A   Mostly Cloudy
10:55 PM 64.4 °F - 64.4 °F 100% 30.14 in 6.0 mi ESE 5.8 mph - N/A   Mostly Cloudy
11:15 PM 64.4 °F - 64.4 °F 100% 30.14 in 5.0 mi ESE 5.8 mph - N/A   Scattered Clouds
11:35 PM 64.4 °F - 64.4 °F 100% 30.14 in 5.0 mi ESE 6.9 mph - N/A   Scattered Clouds
11:55 PM 64.4 °F - 64.4 °F 100% 30.14 in 7.0 mi ESE 5.8 mph - N/A   Mostly Cloudy